Theta_e
319 317 316 314 316 320 320 322 306 313 311 302 304 303 299 308 307 306 309 314 308 313 314 313 312 310 307 302 300 300 299 298 296 299 299 302 307 309 307 306 305 308 310 314 319 325 332 342 344 344 344 344 344 343 343 344 344 344 344 344 343 341 341 341 339 339 339 340 341 342 342 343 341 341 341 342 342 342 341 341 341 341 341 340 341 341 342 341 341 341 340 342 343 344 344 344 345
315 313 314 315 316 324 316 320 310 307 304 300 303 303 302 307 307 304 307 311 311 311 312 310 310 307 306 304 304 304 298 298 299 298 304 307 307 309 305 305 306 307 311 315 320 326 331 339 342 343 343 344 342 342 343 343 343 343 343 343 343 342 341 342 341 339 339 340 341 342 341 341 341 342 343 342 341 341 343 343 342 341 340 341 340 341 342 342 340 340 340 340 341 342 343 344 345
312 313 313 315 314 318 317 318 303 303 300 296 297 300 306 304 304 307 310 313 315 315 313 310 306 305 306 305 301 300 294 302 300 301 302 306 300 301 303 305 307 310 312 316 320 325 329 335 341 342 344 343 344 344 343 343 342 343 343 343 343 342 341 341 341 341 340 341 340 341 342 341 341 341 342 343 343 345 344 344 344 344 343 342 341 341 340 341 341 340 340 339 340 340 341 343 344
317 314 311 313 315 318 311 310 305 301 299 302 296 301 302 304 306 309 315 316 316 315 313 306 301 303 302 296 299 303 296 295 300 299 298 300 299 302 303 304 308 312 314 315 318 322 327 332 336 339 342 343 342 343 342 343 342 344 343 343 342 342 342 342 342 342 341 341 341 341 341 341 342 341 340 343 344 344 344 343 342 342 342 340 341 340 341 341 341 340 340 340 340 340 341 341 343
315 315 314 313 314 309 310 306 304 303 297 296 296 301 303 306 309 311 312 314 314 313 311 307 302 301 300 296 298 294 292 298 299 300 297 300 303 303 303 305 308 310 313 315 316 321 324 330 332 334 338 341 342 342 341 341 341 341 340 340 340 341 340 341 341 341 341 341 341 341 341 341 341 341 340 341 342 341 342 342 342 341 341 341 342 341 341 340 340 341 340 340 340 339 339 338 341
308 309 318 317 311 316 311 303 302 295 295 300 297 300 305 309 311 313 314 313 312 310 307 306 304 300 294 295 296 293 296 292 297 298 298 299 302 303 304 305 308 309 310 314 315 318 321 327 328 331 334 336 339 340 340 340 340 340 339 340 339 339 340 340 340 340 340 340 340 340 341 341 341 341 340 340 340 342 342 342 343 342 342 341 340 341 341 341 340 340 340 340 339 339 338 339 338
309 314 316 316 309 315 304 301 302 295 296 302 299 302 304 307 310 314 313 307 309 309 308 301 301 300 294 296 297 298 300 300 297 298 300 301 302 303 303 305 307 307 308 311 314 316 318 323 326 328 330 333 335 336 337 337 337 336 337 338 338 339 339 339 340 340 339 339 339 339 338 338 338 338 338 339 341 342 341 342 342 342 341 341 342 340 341 340 340 341 340 339 339 338 338 339 339
315 313 312 304 305 306 301 302 295 297 297 301 302 302 305 308 309 307 305 304 300 301 305 304 301 296 292 302 292 298 300 300 300 301 300 301 302 302 302 307 305 305 308 308 307 311 317 320 321 324 326 328 330 332 332 333 333 333 333 334 334 335 336 337 337 337 338 338 337 336 335 334 334 334 334 335 336 338 339 340 340 341 340 340 340 340 340 341 340 340 338 339 339 339 338 338 338
313 310 319 310 300 306 300 299 294 299 298 301 301 305 309 309 309 307 304 304 303 302 300 304 305 297 294 294 292 297 297 300 301 301 300 301 301 302 301 303 306 303 304 305 307 307 309 316 318 319 321 323 325 326 328 329 329 329 330 330 332 331 332 333 333 334 334 335 334 333 332 330 330 330 330 331 332 334 335 337 338 338 339 338 338 339 340 341 340 340 340 339 338 339 338 338 338
310 311 303 305 306 297 298 295 294 295 296 299 299 301 304 307 306 306 302 299 300 301 301 301 300 295 296 292 294 295 296 300 301 299 299 301 303 301 299 299 301 302 303 303 305 306 307 313 315 315 317 319 320 322 323 323 325 326 326 327 328 329 329 330 330 330 330 331 331 330 329 328 328 327 327 327 328 329 331 333 335 335 336 337 336 336 337 338 339 339 340 339 338 338 338 337 338
303 306 311 302 298 297 297 292 294 297 297 299 299 302 304 305 305 301 301 299 300 297 297 303 297 295 295 292 293 300 299 298 298 297 300 300 303 303 300 299 300 301 301 303 304 303 304 306 312 313 313 315 317 318 319 320 321 322 322 323 323 323 324 325 325 326 326 327 327 327 326 325 324 324 324 323 323 324 326 328 330 331 333 334 334 334 334 334 335 337 339 339 339 338 338 338 338
301 301 307 297 295 296 299 293 294 294 296 297 296 301 303 303 302 299 300 298 298 297 295 298 296 300 294 293 293 297 297 295 296 299 300 301 301 303 302 299 299 299 300 300 301 301 302 304 304 309 310 311 312 314 315 317 318 318 318 319 319 319 319 320 320 321 322 321 321 321 322 322 321 321 320 320 319 320 322 323 326 327 328 329 330 330 330 330 331 334 336 337 337 338 338 337 337
304 305 300 298 296 297 294 293 293 294 293 293 295 299 302 300 300 298 297 297 297 295 293 295 304 303 293 292 295 296 293 294 296 298 300 299 300 302 303 297 298 298 299 299 298 298 300 303 303 302 305 308 308 310 312 313 315 315 315 315 316 316 316 316 316 316 316 317 317 316 317 318 318 318 318 317 317 317 318 319 321 324 324 324 326 327 328 328 328 329 330 331 333 335 336 337 337
306 307 303 296 299 296 295 293 294 290 289 294 297 299 300 297 298 300 298 293 293 293 293 294 301 299 293 295 293 291 291 294 295 297 297 298 297 298 298 296 297 296 298 298 296 297 297 298 299 300 301 300 300 303 307 309 310 311 310 311 312 312 312 312 312 312 312 312 312 312 313 314 315 314 313 314 314 314 314 315 317 320 321 321 322 323 324 326 326 327 327 326 327 330 335 335 335
306 308 302 299 296 295 295 293 292 290 289 294 296 297 297 298 298 296 296 291 290 297 301 295 294 299 290 293 289 289 291 293 295 298 297 298 296 297 299 296 296 296 295 296 296 296 296 296 297 298 299 299 298 300 301 302 306 307 307 308 308 309 309 309 309 309 309 309 309 309 309 309 309 310 310 310 311 312 312 311 313 316 318 318 319 320 320 321 321 322 324 324 324 324 328 330 330
310 307 304 298 294 294 294 293 293 290 290 295 297 297 294 295 297 293 294 293 290 292 294 289 292 290 289 287 288 291 292 294 295 296 297 299 298 297 295 295 294 294 295 295 295 296 295 295 295 296 297 297 298 298 297 298 302 304 305 305 306 305 305 305 305 306 306 307 306 306 305 302 303 302 306 303 306 307 308 307 310 312 314 315 316 317 317 317 318 318 319 320 320 320 322 322 322
309 309 298 295 289 289 291 294 294 287 292 295 298 297 292 291 294 294 295 294 289 289 289 290 289 292 288 288 291 293 293 295 296 294 296 295 293 292 293 293 293 293 294 293 294 295 295 295 295 296 296 296 296 297 297 297 298 300 299 302 302 303 303 303 302 302 303 303 303 304 303 299 298 298 298 298 302 300 304 305 306 307 310 311 312 314 315 314 315 316 315 314 314 315 316 316 315
306 298 292 288 289 289 293 292 293 295 293 295 296 296 294 291 293 293 296 292 290 290 288 290 291 291 292 291 293 293 294 293 293 293 291 291 292 290 290 291 291 291 292 292 293 294 294 295 295 295 296 298 297 297 297 297 297 298 295 296 298 298 300 300 298 297 300 296 301 299 299 299 298 298 299 302 298 299 300 303 303 304 305 307 307 308 309 311 312 313 314 313 311 309 309 307 307
297 292 291 286 289 291 296 295 295 293 292 295 296 297 296 294 295 296 292 290 289 287 288 289 288 290 291 292 292 292 293 293 292 291 290 290 290 289 289 290 290 290 290 292 292 293 294 294 295 294 294 296 296 296 297 297 296 297 296 296 295 298 297 296 295 296 295 295 295 295 297 297 297 297 299 301 300 301 299 302 302 302 303 304 303 304 304 305 305 306 308 309 308 306 300 302 303
297 292 287 288 293 293 295 295 294 295 295 294 294 295 295 294 294 295 289 288 289 287 286 287 287 286 289 290 291 292 293 293 292 292 290 290 291 290 289 288 290 290 290 291 292 294 294 293 293 294 294 295 296 294 296 296 296 297 296 296 295 294 295 296 295 295 295 295 295 294 295 296 296 295 300 301 300 297 297 299 301 300 301 301 302 299 301 302 302 302 303 304 303 302 299 300 301
295 292 288 289 292 291 294 296 295 295 295 292 291 291 289 290 294 293 290 287 285 286 289 287 286 287 288 290 291 291 291 291 291 291 290 290 291 292 291 290 290 291 292 292 292 292 293 293 294 293 295 294 294 294 294 295 295 295 296 297 295 298 296 296 297 297 294 295 295 294 295 295 296 295 295 295 295 296 296 296 296 296 296 295 300 295 295 296 296 295 295 298 297 297 298 298 300
294 290 292 292 292 290 293 295 296 295 295 294 292 290 289 292 289 289 290 285 283 286 288 289 289 290 289 290 290 291 290 290 289 289 288 288 288 289 289 291 292 292 294 292 293 293 295 298 298 297 294 293 294 295 293 295 295 294 295 297 296 295 295 294 295 297 297 295 297 295 295 294 293 294 294 294 294 294 294 295 295 296 296 295 297 295 296 296 295 295 295 295 295 296 296 297 297
287 290 292 293 293 291 293 294 294 294 293 291 289 290 290 288 287 288 287 285 287 290 290 290 290 291 291 291 291 290 290 289 289 289 289 288 288 289 289 289 290 289 290 291 291 293 295 296 296 297 297 299 299 300 300 297 296 296 298 298 298 296 296 293 293 293 294 294 296 295 294 293 293 293 293 293 292 293 292 292 292 294 295 295 296 296 296 296 295 295 295 294 295 295 295 296 297
291 287 291 291 292 291 293 292 293 292 292 291 292 293 289 288 284 288 286 288 289 290 291 290 291 291 291 290 290 290 290 290 290 290 291 290 290 291 291 290 291 292 289 290 290 290 292 292 292 292 293 293 292 293 292 293 293 293 294 294 293 296 294 292 292 293 294 293 294 294 296 293 292 292 292 292 292 292 292 292 292 292 292 292 292 293 294 295 294 295 295 295 294 295 295 295 296
289 288 291 291 292 292 293 292 292 292 292 292 291 288 287 288 286 287 285 288 289 290 291 290 290 290 289 289 289 289 289 290 290 291 291 290 291 292 292 290 289 290 289 290 291 291 291 294 292 292 293 294 295 295 293 293 294 293 294 293 294 297 294 295 294 293 293 293 294 294 294 292 292 292 292 292 292 292 292 291 291 291 291 291 291 290 291 290 290 292 293 293 294 294 295 294 296
291 290 291 291 291 292 292 293 292 292 292 292 289 287 288 288 289 285 287 288 290 290 290 290 289 289 288 288 289 288 288 289 289 289 288 290 290 289 290 288 289 288 289 289 290 291 291 290 290 291 291 295 293 294 295 295 295 295 296 296 294 297 293 293 295 293 293 293 293 294 294 294 292 291 291 291 291 291 291 291 291 291 291 291 290 289 290 290 289 289 290 290 291 292 293 294 295
293 291 291 291 291 292 292 291 292 292 292 292 288 287 288 290 290 282 288 289 290 289 289 289 288 288 288 288 288 288 288 288 288 289 289 289 289 289 289 291 289 289 291 289 290 290 294 290 290 291 291 295 292 291 293 291 293 292 295 295 296 296 295 296 294 294 295 294 293 295 294 294 293 292 291 291 291 290 290 290 290 290 290 291 290 290 290 290 289 289 289 289 289 289 290 292 294
293 292 291 291 291 292 292 292 291 292 290 292 291 288 290 290 290 284 287 289 290 288 288 288 288 287 287 288 288 289 288 289 288 289 288 288 289 289 289 288 289 289 289 289 290 291 290 290 290 291 291 293 293 291 293 291 291 293 295 293 293 295 297 295 294 294 296 295 296 295 294 293 294 291 291 292 292 291 290 290 289 289 289 290 290 290 290 290 290 290 290 290 289 289 289 289 291
292 292 287 289 290 289 291 290 292 293 289 291 291 288 286 287 285 287 289 290 289 288 287 288 288 287 288 288 288 288 287 288 288 287 288 288 288 289 288 290 290 289 290 290 290 291 290 290 291 291 291 292 292 291 291 291 292 292 291 292 293 296 293 294 294 294 293 295 296 296 295 295 294 292 292 292 293 290 291 291 290 290 289 290 291 291 291 290 289 289 289 290 289 289 288 288 291
294 293 289 288 287 286 290 292 291 291 289 292 291 279 283 285 286 288 289 288 289 287 286 287 286 287 287 287 287 287 288 288 288 289 288 289 289 289 289 289 291 290 290 290 290 290 292 294 294 295 293 292 294 292 294 291 291 292 294 291 293 292 292 292 294 293 294 293 294 295 293 294 294 292 292 292 292 290 290 290 290 290 290 290 290 291 290 289 288 288 288 288 290 288 287 288 288
289 291 291 286 284 282 289 290 289 288 290 290 291 281 282 284 286 288 289 289 287 286 286 286 286 287 286 288 287 287 288 288 288 288 290 290 289 290 289 289 290 291 291 291 290 290 291 291 294 291 294 291 292 291 291 292 292 292 290 291 291 292 292 291 291 292 293 293 292 292 294 294 294 293 293 292 291 290 290 289 290 289 291 291 289 290 290 289 288 287 288 287 287 287 287 288 288
289 285 283 286 283 282 288 292 289 286 289 292 288 281 283 284 286 288 288 288 288 286 286 286 286 286 287 286 286 286 286 288 288 289 290 289 290 289 290 289 289 289 290 291 292 291 290 291 292 291 291 290 291 293 291 292 291 291 291 297 291 291 291 291 290 291 291 291 292 291 293 293 294 292 292 292 290 290 289 289 289 290 290 290 290 289 290 288 288 289 288 288 286 286 287 286 287
288 285 283 281 284 283 284 288 290 291 289 290 287 281 284 283 286 288 288 288 287 286 286 286 287 287 287 286 286 286 286 286 288 288 289 289 290 289 289 288 289 289 290 289 290 290 291 291 292 291 290 290 291 291 292 291 292 291 291 291 291 291 290 290 290 290 290 290 290 290 291 292 292 292 292 292 290 290 289 289 289 290 290 289 289 288 288 289 288 289 287 289 287 286 286 286 286
282 285 280 284 281 283 281 287 289 290 289 285 288 283 284 285 286 287 288 288 287 286 286 286 286 286 286 286 286 286 286 286 286 287 289 289 290 289 289 292 291 290 291 290 291 290 290 291 291 293 291 290 291 291 291 291 291 291 290 290 293 290 290 290 290 290 290 289 290 290 290 291 292 290 290 291 290 290 290 289 289 289 290 289 288 288 287 288 288 287 286 287 287 286 285 285 285
280 281 281 282 283 283 283 282 285 287 288 286 285 284 285 284 286 286 286 288 286 286 286 286 286 286 286 286 286 286 286 286 286 287 289 290 290 291 289 290 290 290 291 290 290 291 291 291 292 291 292 290 290 290 291 291 291 290 290 290 289 290 290 290 290 289 290 289 289 291 291 292 292 290 290 290 289 289 289 289 288 288 289 287 287 287 287 287 287 287 286 286 287 286 286 286 286
283 284 282 283 281 281 282 285 288 287 284 284 284 283 285 285 284 285 286 287 286 286 286 286 286 286 286 286 286 286 286 287 288 289 290 289 291 291 292 290 291 290 289 289 290 290 290 290 291 290 291 289 290 290 290 289 289 289 288 288 288 288 289 290 290 289 289 289 292 291 290 290 290 292 289 290 289 289 288 288 288 288 288 288 286 286 285 285 286 286 285 286 285 286 287 286 286
286 286 285 283 281 284 286 286 287 288 284 283 284 285 285 285 285 285 286 286 285 285 285 285 285 286 286 286 286 286 286 286 289 290 291 292 292 291 291 291 291 290 289 288 288 289 290 289 290 289 290 290 290 288 288 288 287 286 287 287 286 287 288 289 290 289 290 289 290 290 290 290 289 290 291 289 288 289 289 287 287 287 287 288 287 286 286 286 287 287 287 286 286 284 284 285 285
286 285 284 282 285 281 285 286 287 288 284 282 285 284 285 285 287 287 287 285 284 285 285 285 285 285 286 286 286 286 287 290 289 289 290 290 289 291 291 290 292 289 290 289 288 289 289 289 289 290 290 290 290 289 289 289 288 287 286 286 286 287 287 287 287 288 289 292 291 290 290 289 289 289 290 289 290 287 287 287 287 286 286 286 287 288 287 290 287 286 286 284 285 284 283 284 285
286 284 282 282 281 283 285 287 288 288 286 282 284 282 283 286 286 287 286 285 285 286 286 286 286 285 285 286 286 287 287 287 288 288 289 288 290 291 290 290 290 290 289 289 289 290 289 288 289 290 290 289 289 290 290 288 289 289 288 287 287 287 289 289 289 289 290 290 289 289 290 289 289 288 288 290 289 288 287 287 286 286 286 288 286 285 285 285 285 285 285 284 284 284 285 286 284
284 282 279 277 281 278 276 283 287 286 284 282 283 281 283 286 287 288 288 286 286 287 287 287 287 286 285 286 286 286 286 287 287 287 288 288 289 289 289 289 289 290 290 289 289 289 288 291 288 288 289 289 289 290 293 290 290 289 289 289 289 289 287 289 290 290 289 289 288 289 289 289 289 288 288 288 289 288 287 287 287 286 286 287 286 285 284 284 285 285 285 285 285 282 282 282 285
285 282 281 278 278 280 279 279 283 285 285 285 282 281 281 284 283 284 287 288 287 287 287 286 287 289 288 289 288 288 287 287 287 288 288 288 288 288 289 290 289 290 290 289 289 289 291 288 289 288 289 289 289 291 290 290 290 288 288 289 289 289 288 287 287 287 288 289 289 287 287 288 288 288 288 288 289 288 287 287 287 286 286 286 286 285 284 284 285 285 285 284 284 282 282 282 283
280 281 281 281 281 280 281 282 281 279 278 283 283 274 278 282 284 284 285 285 284 285 284 284 285 286 287 286 287 288 290 289 288 288 288 288 289 290 290 291 290 290 289 290 290 290 289 289 289 289 289 289 289 289 290 290 289 288 286 285 285 284 284 284 285 285 286 286 286 288 288 288 288 288 288 288 288 289 287 287 287 286 286 286 287 285 285 285 284 284 285 284 284 284 283 282 281
277 279 281 283 281 281 281 281 280 274 273 281 283 275 273 280 282 284 284 283 283 284 284 284 285 285 286 286 287 287 287 288 289 289 289 288 289 289 289 289 289 289 289 291 290 290 290 290 289 289 289 289 290 290 290 292 288 288 287 287 286 285 285 286 287 287 287 287 288 287 287 288 288 288 288 287 287 288 288 287 286 286 286 286 287 286 285 284 285 285 286 285 284 285 284 282 281
278 281 282 282 281 280 281 281 279 277 281 284 283 281 274 274 280 283 284 283 282 282 283 284 284 285 286 286 287 287 287 287 288 288 288 288 289 289 288 289 289 289 290 291 290 290 290 290 289 290 289 291 290 290 289 290 289 288 287 287 288 287 286 286 287 287 288 289 288 287 287 287 287 288 287 287 287 287 288 287 286 286 286 285 287 286 285 285 285 286 286 285 285 285 284 282 282
280 284 283 281 281 281 281 280 278 279 277 275 279 282 275 275 279 282 283 281 281 282 283 284 284 285 285 286 287 287 287 288 288 288 288 289 289 289 289 288 289 289 290 290 290 290 291 291 291 290 290 289 289 289 290 289 290 289 288 287 287 288 288 288 288 289 288 288 287 288 287 287 287 287 288 287 287 287 288 287 286 286 285 285 287 286 285 285 285 284 284 284 284 284 284 284 283
284 284 285 284 283 282 282 277 278 279 276 272 277 280 272 273 279 279 280 279 279 280 283 284 285 286 286 286 286 287 287 288 288 288 288 288 288 288 288 288 288 288 289 292 291 291 291 290 291 291 289 289 289 289 289 289 288 289 288 288 287 287 288 288 288 287 287 288 287 287 287 287 287 287 287 287 287 287 287 287 286 285 285 285 287 285 285 285 285 284 285 284 284 283 284 284 283
286 284 282 282 282 280 280 280 278 275 271 273 276 279 275 270 276 277 275 277 279 280 281 283 285 286 286 287 287 287 287 287 287 288 288 288 288 288 288 287 287 288 288 289 289 290 290 290 290 289 289 289 289 289 289 289 288 289 288 288 287 287 287 287 287 287 287 287 286 287 287 287 287 287 287 287 287 287 286 287 286 285 285 287 287 285 285 284 284 284 284 284 284 283 283 283 283
282 279 279 279 278 278 277 277 277 270 271 274 275 275 277 268 273 277 280 280 281 281 280 282 283 284 285 286 287 287 287 287 287 286 286 287 287 287 287 287 287 288 288 288 288 289 289 289 289 288 288 289 289 289 289 289 289 289 289 288 288 288 288 288 287 286 287 286 287 286 287 287 286 287 287 286 286 286 286 286 286 286 286 285 284 285 284 284 284 284 284 284 283 283 283 284 283
282 280 279 274 273 274 271 274 269 271 270 272 274 277 273 273 275 278 279 279 281 282 283 283 283 284 286 286 286 287 287 286 286 285 286 286 286 286 286 287 287 287 288 288 289 288 288 288 288 288 288 289 289 289 289 289 288 288 288 288 288 289 289 288 288 287 287 287 287 286 286 286 286 286 286 286 286 285 286 285 285 284 284 285 285 285 285 284 284 284 284 283 283 283 283 283 282
279 277 275 272 268 267 265 268 272 273 274 275 274 277 273 276 277 280 279 281 282 282 283 283 284 284 285 285 286 286 286 286 286 286 285 285 285 286 286 287 287 288 288 288 288 288 288 288 288 288 288 289 289 289 289 289 289 289 289 289 289 289 288 288 288 288 288 288 288 287 287 286 286 286 286 286 286 286 286 286 286 285 285 285 285 285 284 284 284 284 284 283 283 283 283 283 282
278 281 277 274 271 266 263 267 265 266 271 275 277 271 269 273 274 281 281 282 282 282 283 283 283 283 284 284 284 284 285 284 284 285 285 285 286 286 287 288 287 287 287 288 288 288 288 288 289 288 288 288 288 288 288 288 288 289 289 289 289 289 288 288 288 289 288 288 288 287 287 287 287 287 287 287 287 286 286 285 285 285 284 284 284 284 285 284 284 284 284 284 284 283 283 283 282
278 279 281 274 271 275 268 270 269 267 268 268 272 271 275 275 280 281 282 281 281 282 282 283 282 283 283 284 284 284 284 284 285 285 286 286 286 286 287 287 287 287 287 287 287 288 287 288 288 288 288 288 288 289 288 288 288 289 288 288 289 289 290 289 289 289 288 288 288 287 287 287 287 287 287 287 287 287 286 285 285 285 285 284 284 284 284 284 284 283 283 283 282 284 283 282 282
276 278 273 274 280 274 270 271 271 269 268 267 274 275 276 277 279 281 281 280 280 281 281 281 282 283 283 283 283 283 284 283 284 285 285 285 286 286 287 286 287 287 286 287 287 287 287 287 287 287 287 288 288 288 288 288 288 288 288 288 288 288 288 288 288 288 288 288 288 288 287 287 287 287 287 287 287 287 286 286 285 284 284 284 284 284 284 283 283 283 283 282 282 282 282 282 282
279 273 276 280 275 273 271 266 268 269 265 268 274 272 273 273 270 279 279 278 279 280 280 280 281 281 281 282 282 283 283 283 284 285 285 285 286 286 286 287 286 287 287 287 287 287 288 288 287 287 287 287 287 288 288 288 288 288 288 288 288 288 288 288 288 288 288 288 287 287 287 287 286 287 287 287 286 286 286 286 285 284 284 284 283 283 283 283 283 283 282 282 282 282 281 281 282
278 277 282 275 269 269 273 270 264 263 262 265 270 273 273 274 273 275 275 276 278 279 280 279 280 281 281 281 282 282 283 283 284 284 284 285 285 286 286 286 286 286 287 287 287 288 287 287 287 287 287 287 287 288 288 288 288 288 289 288 288 288 288 288 288 288 288 287 287 287 286 286 286 286 286 285 285 285 285 285 284 283 283 283 283 283 283 283 282 282 282 282 282 281 281 280 281
276 281 278 280 274 272 268 271 269 270 265 265 264 270 269 276 274 276 276 277 279 279 279 280 280 281 281 281 282 282 282 283 283 284 284 285 285 285 286 286 286 286 286 287 287 287 287 287 287 287 287 287 287 287 288 287 288 288 288 288 288 288 288 288 288 287 287 286 286 286 286 285 285 285 285 285 284 284 284 283 283 283 283 282 282 282 282 282 281 281 281 281 281 281 280 280 280
276 275 275 274 274 277 275 272 269 267 264 264 265 265 271 276 278 278 277 278 279 280 280 281 281 281 282 281 282 282 283 283 283 284 284 285 285 286 286 286 286 286 286 287 287 286 287 287 287 287 287 287 287 287 287 287 288 287 287 287 287 287 287 287 287 287 286 286 286 286 285 285 284 284 284 283 283 283 283 283 282 282 282 282 281 281 281 281 281 281 281 281 281 281 280 280 280
275 276 274 274 272 268 265 266 274 267 267 264 264 264 272 278 281 280 279 280 280 281 281 281 281 282 282 282 282 282 282 283 283 284 285 285 285 286 286 286 286 286 286 286 287 287 286 286 287 287 287 287 287 287 287 287 287 288 287 287 287 287 287 287 286 286 285 285 285 284 284 284 283 283 283 282 282 282 282 282 281 281 281 281 281 281 281 281 280 280 280 281 280 280 279 279 279
Wind_Speed
12 10 9 8 5 4 4 3 3 3 2 4 2 3 3 3 2 6 7 7 9 10 10 13 15 14 11 11 21 18 14 10 5 2 3 4 11 10 16 20 22 20 18 17 16 16 17 12 15 12 12 11 13 11 9 8 8 8 12 12 11 11 10 10 10 9 9 9 10 11 10 8 8 8 7 6 7 7 7 9 8 6 7 6 6 6 8 7 5 4 4 3 5 6 8 8 10
9 9 9 7 3 2 2 5 2 2 3 4 2 6 3 5 8 7 10 13 8 7 9 13 15 21 24 21 17 14 16 12 8 4 4 8 14 4 19 20 21 20 17 14 14 14 15 16 20 15 13 11 14 10 10 10 7 7 12 12 11 11 11 11 10 9 9 9 9 9 9 10 6 7 7 8 8 6 7 6 8 7 8 10 7 4 5 8 5 4 3 1 1 4 7 9 10
8 8 8 5 4 3 5 2 3 3 4 4 4 6 5 9 8 6 8 13 13 12 9 9 13 11 11 12 16 11 5 8 12 10 2 12 14 14 22 21 19 16 15 12 13 13 15 18 28 25 17 15 13 15 14 11 11 14 14 14 13 11 10 10 10 9 9 8 8 9 11 11 9 10 12 10 8 8 7 7 7 8 8 9 10 9 8 7 6 3 2 2 1 2 5 7 8
7 5 4 4 1 3 2 2 4 5 3 2 2 6 7 5 7 7 8 11 9 7 6 9 9 9 12 14 8 11 9 8 12 11 5 10 10 15 17 20 18 13 12 12 13 12 14 21 30 27 28 22 21 22 20 20 19 21 20 18 16 14 14 14 14 13 13 12 13 13 14 12 13 14 13 10 9 10 9 9 8 8 8 9 10 8 9 10 7 3 2 1 2 4 5 6 6
6 4 4 3 2 2 2 3 3 4 2 4 3 4 6 6 6 8 8 12 13 10 9 8 8 9 14 13 9 5 7 10 9 11 7 7 13 14 15 18 15 14 12 13 13 13 16 29 28 28 30 30 28 26 26 24 23 23 21 19 19 18 16 16 15 14 14 13 14 15 16 17 17 18 17 16 16 13 13 11 11 12 12 11 9 9 9 7 8 7 6 4 2 2 1 1 6
6 4 3 2 1 3 2 2 4 6 3 4 5 5 5 6 8 10 13 16 15 14 14 13 8 5 8 9 8 5 10 5 10 7 11 9 14 15 14 14 13 14 14 12 12 11 15 27 28 29 30 31 31 30 30 28 27 25 25 25 23 22 22 20 20 18 16 18 19 22 22 22 21 21 20 19 19 19 19 17 15 13 12 11 10 10 10 9 9 7 8 8 4 1 1 4 2
3 1 2 2 4 2 2 3 2 6 8 6 6 6 6 4 3 11 10 14 15 15 12 11 14 12 11 4 11 9 9 8 6 8 9 10 12 15 12 12 12 14 16 12 10 10 19 26 26 28 30 31 31 30 28 30 30 29 28 27 27 26 25 25 25 23 22 22 23 24 24 23 23 23 23 22 22 22 22 21 21 20 18 17 15 11 9 9 10 10 9 9 9 4 3 4 5
3 1 2 3 2 2 2 0 7 3 5 8 6 8 8 7 7 10 14 12 9 9 11 12 13 18 9 11 6 6 10 11 8 10 11 12 14 14 10 8 12 14 13 14 13 11 16 25 27 29 31 31 30 29 30 30 29 29 29 28 27 27 27 26 25 26 26 25 25 25 25 23 22 22 22 22 23 23 23 23 23 21 20 20 20 17 15 13 11 10 6 5 6 6 7 7 2
2 2 2 1 3 2 2 2 7 7 8 8 9 9 10 6 12 11 15 12 11 14 16 8 6 11 4 12 10 5 8 9 9 11 12 13 13 14 8 8 8 11 14 13 14 13 12 25 25 28 29 28 30 29 29 30 30 30 30 30 29 29 28 28 28 26 26 27 27 25 24 23 23 23 22 22 22 22 22 22 22 22 22 21 20 20 20 19 16 14 12 7 7 9 7 8 8
2 2 3 2 1 4 4 5 5 5 9 10 10 11 11 12 13 14 14 16 13 15 16 18 17 17 10 12 6 7 5 6 6 7 9 9 10 13 12 11 9 9 10 12 14 14 13 22 29 28 28 29 30 29 31 29 30 30 29 28 28 28 28 27 27 27 27 26 25 26 25 24 23 23 23 23 23 23 22 21 21 22 22 22 22 21 20 20 19 18 15 13 11 11 9 5 9
2 3 3 3 3 3 5 7 7 7 9 9 11 12 11 11 11 15 15 15 14 11 12 8 15 11 10 8 7 3 4 6 7 7 5 4 8 12 11 10 8 10 9 9 9 13 14 15 26 30 28 29 29 29 30 30 30 29 29 29 28 28 28 27 27 27 27 26 25 25 25 25 25 25 25 24 23 23 22 22 21 22 21 21 20 21 21 20 20 19 18 18 15 11 10 11 8
2 2 2 2 3 3 3 10 9 8 10 9 10 11 10 11 13 14 13 14 11 14 13 12 6 10 13 7 3 3 6 10 7 2 4 5 4 9 8 9 10 11 11 10 10 11 13 9 16 22 27 27 28 29 28 28 29 29 29 29 28 28 28 28 27 27 26 25 25 24 24 24 24 25 24 25 24 24 24 23 22 21 21 21 20 19 20 20 20 19 20 20 19 17 13 8 7
2 2 2 1 3 1 12 11 8 8 7 10 8 10 8 13 12 12 13 14 12 12 12 15 8 3 5 4 2 4 10 12 10 6 2 5 3 4 5 8 10 11 11 13 13 13 12 9 10 15 21 27 24 24 25 26 27 28 28 27 27 27 27 28 27 27 26 25 24 23 23 23 24 23 23 25 25 24 23 24 23 23 22 22 21 20 20 20 20 20 19 19 18 18 17 16 13
2 2 2 3 6 7 4 8 6 7 7 7 7 10 11 8 11 10 9 13 13 10 6 12 9 12 11 6 3 6 7 12 12 7 6 7 7 6 6 8 10 12 11 12 15 14 14 13 12 12 13 15 14 18 21 26 26 27 27 26 25 24 25 25 25 25 26 26 25 23 22 22 22 23 24 23 23 23 23 23 24 24 23 23 22 22 21 21 21 20 19 20 19 19 18 16 16
2 4 2 3 5 7 4 2 7 9 5 6 8 10 11 10 11 12 11 13 12 7 3 13 9 3 3 1 2 5 9 11 10 7 7 5 7 5 4 7 9 10 12 13 13 15 15 13 13 11 11 12 15 10 9 16 24 24 26 26 25 24 22 22 22 22 22 23 23 23 22 22 22 23 22 22 21 22 22 22 24 23 24 24 23 23 22 22 22 21 19 19 20 19 18 17 18
2 3 2 1 5 4 6 9 8 10 7 7 10 13 15 13 9 12 8 9 9 12 11 7 15 6 7 11 5 6 8 10 9 8 7 5 5 5 7 7 9 10 11 13 12 12 14 15 12 12 13 12 10 11 12 13 19 22 22 23 23 24 23 22 21 19 19 19 19 21 21 17 18 17 23 17 21 22 24 20 22 22 23 23 23 23 23 22 22 22 20 20 20 19 18 18 19
3 2 2 5 9 8 8 1 7 6 7 4 6 8 10 11 12 15 11 11 18 13 15 11 8 8 11 8 7 6 8 9 9 9 5 5 4 6 6 7 7 9 8 12 13 11 12 14 13 11 12 15 13 11 9 10 15 20 16 18 21 21 21 22 22 19 16 15 14 15 15 13 12 11 12 13 17 16 21 22 22 22 22 22 22 22 22 22 22 22 21 21 21 19 17 16 18
3 4 8 10 5 9 5 9 7 8 8 8 10 10 13 11 9 11 11 16 16 14 15 10 13 12 9 8 9 9 10 10 9 8 8 7 5 6 7 9 9 10 10 10 12 13 11 11 12 12 9 10 9 8 8 9 8 12 13 12 12 13 16 17 14 13 14 10 14 11 9 8 8 8 9 13 10 13 15 22 21 21 22 22 22 21 22 21 22 22 21 21 21 20 19 8 9
9 4 9 8 4 6 6 8 9 7 9 9 9 8 9 10 9 6 10 11 11 13 11 9 12 9 10 10 10 10 10 10 11 12 11 11 9 10 8 8 9 10 12 10 9 12 10 9 11 13 14 11 9 9 7 7 9 8 10 11 10 14 13 13 11 12 11 11 10 9 9 8 9 9 10 11 10 14 14 19 20 20 21 21 21 21 21 22 22 22 22 19 18 19 11 8 8
11 9 9 9 7 9 11 11 12 10 10 11 10 9 10 9 8 8 12 11 11 11 8 9 9 9 8 8 7 7 6 7 8 10 13 13 11 10 10 10 9 10 8 8 8 8 9 9 10 10 11 10 8 8 6 6 7 8 8 7 8 8 9 9 12 11 10 11 10 9 8 8 8 7 11 14 11 8 8 12 16 16 17 18 20 13 16 18 20 20 20 19 13 8 8 9 8
4 9 6 6 6 8 9 9 10 10 9 10 10 10 12 12 5 8 12 12 11 9 8 9 10 9 9 8 8 7 8 8 8 8 9 10 8 7 8 8 7 6 5 6 7 8 10 9 8 9 8 8 10 8 8 8 8 7 7 8 8 7 8 8 8 9 10 12 10 8 8 7 6 6 7 7 7 7 7 7 8 8 8 9 13 10 10 10 11 9 10 11 9 9 9 9 9
8 11 9 7 5 10 7 8 8 7 8 8 7 8 7 5 15 12 9 10 6 6 6 7 9 9 10 9 9 9 9 9 10 10 10 8 7 4 3 3 3 3 1 4 4 4 6 5 6 7 8 9 7 7 9 8 8 7 6 5 5 5 5 6 6 6 6 8 9 9 7 7 8 6 7 7 8 8 8 7 7 7 8 8 8 8 9 9 9 9 10 10 9 8 8 8 8
10 8 9 8 7 10 5 6 6 5 8 9 8 8 9 12 9 9 13 11 8 7 8 7 6 7 8 6 7 9 8 8 8 9 8 7 5 5 6 4 3 3 3 3 2 1 1 2 2 2 4 3 4 2 3 5 6 6 6 5 5 6 6 7 6 7 7 7 7 7 7 7 7 6 6 7 7 7 8 8 8 7 7 8 8 7 8 8 8 8 9 9 8 9 9 8 8
15 8 7 11 9 12 9 9 9 8 10 9 7 7 9 8 11 6 11 8 8 7 8 9 8 8 7 7 6 6 5 5 7 7 7 7 5 3 2 3 2 1 4 3 3 3 2 4 3 3 4 5 4 5 5 5 5 5 5 4 5 6 5 5 6 5 5 6 7 7 6 5 6 6 6 6 7 6 7 7 7 7 7 7 8 8 7 7 8 7 7 8 9 8 9 9 8
11 10 7 9 9 9 9 8 9 10 10 8 9 10 9 9 9 8 10 8 7 7 7 8 8 7 7 8 8 7 7 6 6 4 4 3 4 3 2 2 3 3 3 3 2 2 3 2 2 1 0 1 1 1 2 2 2 3 3 3 4 4 4 3 3 3 5 5 5 6 7 6 6 6 7 6 5 6 6 7 7 7 7 7 6 7 7 7 8 8 8 8 7 7 7 8 7
7 12 9 9 9 8 5 7 8 8 6 8 11 10 10 13 12 10 7 7 6 6 6 6 6 6 5 6 6 6 6 6 5 6 6 4 4 4 3 3 3 3 3 3 3 3 3 3 4 4 4 0 1 0 0 1 1 0 0 2 3 2 3 4 3 3 3 4 5 5 5 5 5 6 6 7 6 6 6 6 7 7 7 6 5 7 7 6 7 8 8 9 8 8 7 7 7
7 11 10 10 9 7 5 6 6 4 4 5 9 7 7 6 2 3 3 5 6 7 7 6 6 6 6 5 5 5 5 6 7 6 5 4 5 4 3 2 3 3 3 3 2 2 3 3 4 5 4 5 4 3 3 3 3 4 3 1 1 1 1 1 2 2 1 2 3 4 5 5 5 5 5 5 5 5 5 4 5 6 6 6 5 5 6 6 6 7 8 9 9 9 8 7 7
10 11 11 9 7 6 5 4 3 2 4 3 4 4 2 3 2 6 7 6 6 7 7 6 5 4 4 5 4 4 4 3 4 4 4 4 2 2 3 3 3 2 3 2 2 2 3 4 4 4 5 6 5 4 3 4 3 3 3 4 5 4 2 1 1 2 2 2 2 3 3 4 5 5 6 6 5 5 5 5 3 4 6 6 6 5 6 5 5 6 7 7 8 8 8 8 7
9 7 10 8 6 6 4 4 2 0 2 3 2 5 3 2 5 8 8 5 6 6 7 6 6 5 4 4 4 3 3 3 3 3 3 3 3 2 3 2 2 3 2 4 4 4 4 2 3 4 4 5 6 6 6 4 5 4 5 3 5 5 4 3 2 2 3 1 1 3 3 3 3 4 5 6 6 5 6 5 5 3 5 6 6 6 5 5 5 5 6 6 6 7 8 8 7
7 3 6 7 5 6 3 2 2 1 2 1 1 2 4 3 8 8 7 5 5 6 4 3 3 4 3 3 3 3 3 2 3 3 3 2 3 3 3 3 3 3 3 2 3 4 3 3 2 2 3 4 4 5 5 5 4 4 3 6 3 6 5 3 3 2 2 4 2 2 4 3 3 4 5 5 6 5 5 5 4 4 4 6 6 6 6 5 5 5 6 6 6 7 8 8 8
0 3 3 1 1 3 2 2 3 2 1 3 2 2 3 3 6 6 6 6 7 5 4 4 4 3 3 2 3 3 3 3 3 3 3 3 3 2 3 3 2 3 2 2 3 4 4 4 4 3 4 4 3 4 4 4 4 4 5 3 4 4 6 5 3 4 2 2 3 2 3 4 3 3 4 5 7 5 5 5 5 4 5 4 5 5 5 5 5 5 5 6 5 6 6 7 8
4 1 0 1 3 1 4 1 3 3 1 3 2 4 1 7 7 7 5 6 7 5 5 4 4 3 3 3 4 3 3 3 3 3 2 3 3 3 2 2 3 3 2 2 2 2 3 3 4 4 4 4 3 3 3 4 4 4 4 3 2 4 3 4 5 4 4 2 3 5 4 5 3 4 4 5 5 6 5 6 6 5 4 5 5 5 5 6 5 5 5 6 7 7 7 8 7
1 0 2 3 3 4 4 2 3 3 1 4 3 3 0 2 5 6 6 6 5 4 5 5 6 6 5 4 4 4 4 3 3 3 3 3 2 2 2 3 2 3 3 3 3 2 2 1 1 3 4 4 3 1 3 4 4 4 4 4 4 3 3 3 3 4 3 3 2 3 4 5 4 4 5 5 5 6 6 6 6 5 5 6 6 6 6 6 6 5 5 6 5 7 8 9 8
5 5 2 1 3 1 1 0 5 4 1 3 4 4 2 7 8 9 8 7 7 4 5 5 4 3 4 4 4 4 4 4 3 3 3 3 2 2 3 2 1 1 1 1 1 2 1 1 1 0 3 4 4 2 2 4 4 4 5 6 4 6 4 3 2 4 3 4 2 3 4 4 4 3 4 5 5 5 5 6 6 6 6 6 6 6 6 5 5 5 6 5 5 5 7 8 9
5 7 5 1 1 1 0 1 3 5 4 4 4 5 5 8 8 9 9 8 8 6 5 6 5 5 5 4 4 5 5 5 4 4 3 3 3 1 2 1 1 2 0 0 0 0 1 1 1 2 1 2 4 4 3 3 3 4 3 6 5 5 5 4 3 4 3 3 2 3 4 5 5 4 4 5 5 5 5 6 6 6 6 6 5 5 5 5 5 6 6 7 4 5 6 6 9
6 7 4 4 5 2 2 1 3 3 3 5 4 5 6 6 6 8 7 7 7 6 5 5 6 6 5 4 4 4 4 5 5 5 4 4 2 2 0 1 1 1 2 0 3 1 1 1 0 2 2 2 2 2 3 4 3 3 4 4 5 5 6 6 4 5 3 2 2 3 4 4 5 4 4 6 5 6 6 6 6 6 6 6 6 6 6 6 8 7 7 6 8 5 5 6 7
6 4 3 3 1 2 2 2 2 3 4 5 6 6 6 4 8 10 9 7 6 6 6 5 5 5 5 5 4 4 4 4 6 5 3 2 3 2 1 0 2 2 4 4 1 2 2 1 2 3 3 2 2 2 2 3 3 4 3 3 5 4 6 6 6 5 4 4 3 4 4 5 5 4 4 5 6 6 6 6 6 6 6 6 6 6 6 7 8 7 7 6 7 8 5 5 6
6 6 4 6 1 5 4 1 3 2 1 4 7 9 8 7 6 7 8 8 10 9 7 6 6 4 4 5 4 4 4 4 5 4 3 3 2 3 3 3 4 4 3 1 2 2 3 3 4 4 3 2 2 3 2 3 2 3 4 5 5 5 6 6 6 7 6 5 6 6 5 5 5 5 4 4 5 5 6 6 6 6 6 6 6 6 6 6 7 7 6 6 4 6 6 4 7
7 3 5 4 5 6 4 5 2 0 2 7 5 7 8 8 5 3 12 11 8 8 6 5 5 5 4 4 4 4 3 5 4 4 5 5 5 4 4 4 4 4 3 3 3 3 4 5 4 3 2 3 3 3 3 3 2 3 3 5 5 6 6 7 7 7 6 7 8 6 5 5 6 5 5 5 6 6 7 7 6 6 6 5 6 6 6 6 6 7 6 7 8 4 5 4 5
5 5 5 4 4 7 6 3 1 6 4 6 5 8 13 9 8 10 7 11 6 5 6 4 4 4 4 4 4 4 4 4 5 5 5 5 5 6 5 4 4 4 3 3 4 4 3 4 4 3 4 3 3 4 4 4 4 4 4 6 7 6 7 6 6 7 7 7 6 5 5 6 6 5 5 6 6 6 7 7 7 6 6 5 6 6 6 6 6 6 6 7 7 9 4 4 3
6 7 4 4 6 5 4 8 10 11 12 10 7 7 9 7 5 5 4 9 6 5 4 4 3 3 3 4 4 5 5 4 4 4 4 4 4 5 5 5 4 3 3 4 4 4 3 4 4 5 4 4 4 4 5 5 4 4 4 5 6 7 5 5 5 6 6 5 6 5 7 5 6 6 6 7 7 7 7 7 7 7 6 6 6 7 6 7 7 7 7 8 8 7 9 5 5
3 3 3 2 4 8 8 9 10 5 4 5 2 5 1 3 1 6 3 8 5 4 4 4 4 3 2 3 3 3 2 1 3 3 3 3 3 1 0 1 2 3 4 4 4 5 5 5 5 5 4 4 5 5 5 4 5 5 5 5 6 5 6 5 6 7 7 6 7 6 7 6 6 7 7 8 8 7 8 8 8 8 7 7 6 7 7 6 7 7 7 7 8 7 8 9 8
3 0 1 2 4 6 7 6 5 4 3 1 2 1 6 5 6 8 4 7 5 4 4 4 5 4 5 4 3 4 3 2 1 1 1 2 1 1 2 3 3 4 4 4 4 4 5 5 5 5 6 6 6 5 5 5 5 5 6 7 6 7 8 7 6 7 7 7 6 7 7 7 7 8 8 8 8 8 8 8 8 8 8 7 7 7 7 7 7 7 7 7 8 8 7 10 11
2 1 2 4 5 4 4 5 3 6 3 8 3 1 2 6 5 4 7 6 5 4 5 5 4 5 5 4 4 3 4 3 3 3 3 3 3 3 3 3 3 4 4 4 4 4 5 6 6 6 6 7 6 5 5 5 6 6 6 7 7 8 8 10 9 9 8 8 9 9 8 7 7 8 9 9 9 9 9 9 8 8 8 8 8 7 8 8 7 7 8 9 9 8 9 10 11
4 3 5 7 4 5 4 3 5 5 4 5 3 4 1 1 1 5 5 8 8 7 7 4 2 5 4 4 4 4 3 2 2 1 1 1 1 2 3 4 5 5 5 5 5 5 5 6 6 6 7 6 6 6 6 6 6 7 7 7 8 8 10 10 9 9 9 9 10 9 9 9 9 9 9 10 9 9 9 9 9 8 9 9 8 8 9 9 10 10 10 10 10 10 9 10 10
1 7 8 6 4 3 3 2 3 5 0 2 1 1 0 3 1 3 5 6 6 5 7 9 11 12 2 4 3 4 3 1 2 1 2 2 2 3 4 4 5 5 5 5 6 6 6 6 7 7 7 6 6 7 7 7 7 7 8 8 10 10 9 9 9 10 10 9 11 11 10 9 8 8 9 9 10 10 10 10 9 9 10 10 9 9 9 10 10 10 11 10 10 12 10 10 11
7 9 9 5 4 4 2 3 3 1 1 1 3 4 2 3 3 6 5 4 5 5 5 6 10 8 12 4 4 5 3 2 3 1 2 0 2 3 4 4 5 5 5 5 6 7 6 6 7 7 8 7 7 8 7 8 8 8 9 9 10 10 11 10 10 10 10 9 10 11 10 10 9 10 9 9 10 10 10 9 9 10 10 9 9 9 10 10 10 10 10 11 12 13 11 11 12
3 3 4 8 0 1 1 2 2 1 0 0 1 3 2 1 1 5 5 5 5 5 4 7 7 7 7 5 6 5 4 3 3 2 2 1 3 4 4 5 5 6 6 6 6 6 6 6 6 6 6 6 6 6 6 7 8 8 7 8 9 10 10 10 11 12 11 11 11 12 10 9 10 9 9 10 10 10 10 10 10 10 9 9 10 10 10 10 9 9 10 11 11 12 12 12 12
3 6 7 6 3 1 1 1 1 1 0 1 2 4 3 1 3 2 4 4 4 4 5 5 6 9 9 8 8 6 5 4 4 3 3 3 3 4 5 5 5 6 6 6 6 5 5 5 6 7 8 7 8 7 7 7 7 7 7 8 9 9 10 10 11 11 10 10 10 10 10 10 10 10 9 10 10 11 10 10 10 10 10 10 10 10 10 11 11 11 12 13 13 13 12 12 12
8 6 6 5 4 4 2 3 3 1 0 3 2 1 2 2 3 4 3 4 3 4 5 5 6 7 7 7 6 5 5 3 3 3 3 4 5 5 5 6 6 6 6 6 5 5 5 5 6 7 8 8 7 7 8 8 8 9 8 9 9 9 10 10 10 11 11 10 9 10 10 10 11 11 12 12 11 11 11 11 12 12 11 11 10 11 12 11 12 12 13 14 14 12 12 13 14
4 3 3 1 3 1 1 2 2 3 6 7 1 1 2 2 0 0 2 3 4 4 4 4 4 4 4 4 4 4 2 3 3 3 4 4 5 5 6 7 6 5 5 6 5 6 5 6 6 7 7 7 8 8 8 9 9 9 9 9 9 8 9 9 10 9 10 11 10 11 11 10 10 11 11 11 12 12 12 12 11 12 11 11 11 11 11 12 13 13 13 14 13 12 12 12 12
3 3 1 2 1 1 3 2 3 3 4 6 1 1 2 3 3 2 2 4 4 3 4 3 4 3 3 2 3 3 4 4 5 5 6 6 6 6 6 6 6 6 6 5 5 5 5 5 6 7 8 8 8 8 8 9 9 9 9 10 11 11 10 10 10 10 10 10 11 11 12 12 11 12 12 13 13 13 13 13 13 13 12 12 11 12 12 12 13 14 13 13 13 9 11 13 12
3 3 3 1 1 1 2 3 0 1 1 5 3 1 4 1 2 1 4 5 4 4 4 4 3 2 1 2 2 3 4 4 5 5 6 7 6 7 7 7 6 6 5 5 6 6 6 6 6 8 8 7 8 8 9 9 10 9 10 10 10 10 10 10 11 12 12 11 11 10 11 12 12 12 12 12 13 13 14 14 14 13 12 11 12 12 13 14 14 13 13 13 13 11 12 12 12
1 2 2 1 3 2 1 2 3 1 2 2 5 6 1 2 2 1 5 4 1 6 3 4 4 5 5 4 4 4 4 4 5 5 5 6 7 7 7 6 6 6 6 6 7 6 6 6 7 8 8 8 8 9 9 8 9 9 9 9 9 10 10 11 12 12 12 12 12 11 11 12 13 13 13 13 14 15 15 16 14 14 12 11 11 12 13 14 13 12 12 12 11 11 11 11 11
4 2 2 3 2 2 2 0 4 4 4 3 3 2 3 4 1 3 2 2 5 6 5 5 5 5 5 4 5 5 4 4 5 5 6 6 6 7 7 7 7 7 6 6 7 7 7 6 6 6 8 9 9 8 8 9 9 8 8 9 10 10 10 11 12 12 12 12 13 13 13 14 14 14 14 15 15 15 15 14 13 12 11 12 13 13 13 12 12 13 12 12 12 11 11 12 11
1 2 3 1 1 0 3 0 2 1 6 6 3 5 6 1 0 2 3 4 6 7 5 5 5 5 4 4 4 4 4 5 5 5 6 6 7 7 8 8 9 8 7 7 7 7 7 7 7 7 8 8 8 9 10 10 9 9 10 11 11 10 11 12 12 12 13 13 13 13 14 14 15 14 14 16 15 15 15 16 14 13 13 13 13 13 12 12 12 12 12 12 11 12 12 13 12
2 2 2 2 1 2 4 2 2 1 1 2 5 7 0 1 1 3 3 4 4 5 7 5 6 5 5 5 5 5 5 5 6 6 7 7 8 8 8 7 7 7 7 7 7 7 7 7 7 8 9 9 9 9 9 9 9 10 11 12 12 12 13 12 13 14 14 14 14 14 14 14 14 15 15 16 16 15 15 14 14 14 14 13 13 13 12 12 13 13 13 13 13 13 14 13 13
1 0 2 1 1 3 3 3 3 3 2 2 2 10 7 5 2 4 1 1 3 4 4 5 5 7 6 6 5 6 5 5 6 7 7 8 8 8 8 8 7 7 7 8 8 7 7 7 7 8 8 7 9 10 10 11 10 10 11 13 14 13 13 13 14 14 15 15 15 15 15 15 15 15 14 15 15 14 13 13 12 13 13 14 14 14 14 13 13 13 14 11 12 13 13 14 13
Wind_Direction
314 314 314 304 292 266 290 210 264 186 219 248 259 228 75 22 72 103 111 118 70 49 63 50 42 35 77 99 100 84 43 65 27 333 61 355 340 335 350 339 339 338 342 334 332 330 332 359 42 55 64 76 60 70 97 82 72 68 80 78 75 71 72 74 67 61 70 59 50 51 48 47 32 43 46 42 45 43 46 24 20 27 21 25 32 12 3 357 2 22 52 105 125 153 140 143 143
310 316 304 284 269 282 223 178 270 251 186 273 311 37 89 87 60 42 56 60 70 94 71 65 76 95 102 117 124 108 57 60 33 2 290 6 333 341 341 343 341 340 335 330 330 338 338 12 35 49 52 74 78 55 67 76 75 70 69 71 69 65 62 66 68 64 50 43 46 44 51 45 26 32 38 41 42 33 39 48 26 11 33 24 18 16 359 349 338 7 20 42 171 164 158 156 153
308 309 308 265 230 245 313 248 249 246 213 214 56 24 21 69 64 65 72 80 100 103 74 66 54 31 64 44 43 36 85 51 27 13 354 346 355 344 339 342 338 337 333 330 337 347 358 10 36 36 47 59 73 68 58 65 56 55 51 50 51 52 58 59 62 64 57 51 35 38 35 41 16 30 34 29 28 33 29 25 29 32 26 32 24 360 358 353 345 346 354 350 311 264 167 149 149
292 266 275 318 273 180 259 211 246 287 261 81 114 28 47 48 75 82 80 110 108 103 100 36 45 353 60 41 20 100 70 13 37 2 355 352 4 328 337 337 335 338 337 341 343 352 7 19 34 35 44 52 60 60 59 60 57 54 49 48 46 45 40 41 35 34 35 34 34 34 33 37 30 27 27 22 20 22 31 15 19 21 22 29 32 8 355 8 351 2 349 315 324 173 158 149 149
271 261 244 288 299 191 210 228 247 232 305 346 75 63 46 52 91 91 70 40 41 59 82 126 90 66 83 66 10 40 336 311 25 18 345 341 344 332 336 333 341 349 345 341 346 4 12 27 33 36 38 47 52 55 52 55 54 53 53 52 51 47 46 45 45 41 39 41 44 45 48 47 43 40 37 28 28 25 25 26 20 18 10 13 13 10 8 2 13 11 344 356 49 8 127 263 157
267 264 214 240 247 337 330 263 228 78 41 327 93 61 36 27 92 97 76 64 59 59 62 49 75 104 44 44 38 55 352 21 341 21 348 344 339 335 336 331 350 355 348 346 348 1 19 31 32 38 44 45 46 47 48 44 46 43 45 43 45 46 45 46 44 45 49 53 57 56 51 49 46 41 38 37 38 41 38 36 27 19 11 9 18 12 2 14 16 360 6 329 343 227 225 207 227
300 266 184 186 277 220 267 239 59 86 39 29 53 55 37 350 53 112 117 69 45 69 63 111 120 112 88 143 83 56 43 17 11 352 353 338 342 332 338 343 6 2 1 353 349 0 26 32 35 38 42 46 48 46 48 49 45 43 41 40 40 40 38 39 43 42 49 54 51 52 49 47 46 44 41 38 32 35 35 35 38 36 31 21 13 17 18 23 6 11 1 354 335 311 283 260 264
249 264 145 176 217 170 229 357 65 69 71 60 40 36 20 353 335 62 61 73 33 35 45 80 81 88 64 49 87 48 41 36 22 358 1 0 342 333 345 350 11 14 7 7 5 7 17 29 35 37 41 40 44 44 47 50 48 47 45 41 40 40 38 37 40 41 41 48 50 49 48 45 44 44 42 41 39 34 34 34 33 34 30 30 29 27 27 22 10 5 358 334 307 307 316 299 294
218 235 257 269 239 176 223 125 96 72 73 50 45 25 10 9 93 86 79 79 77 58 45 45 93 75 100 76 71 46 44 37 27 23 21 12 345 339 358 351 20 12 20 17 18 7 23 29 36 41 44 45 45 44 44 45 47 46 44 41 41 42 40 38 37 39 40 42 47 46 46 43 42 41 39 38 37 37 36 33 34 35 34 32 30 29 29 27 23 19 8 354 355 321 318 331 313
240 214 168 232 216 196 190 104 108 79 81 55 42 22 20 33 60 80 84 67 66 71 66 57 65 95 107 75 107 40 36 34 28 23 28 25 357 356 2 0 18 25 28 30 27 22 17 29 37 39 41 42 45 45 46 45 45 45 44 42 41 41 40 39 39 38 39 42 41 41 43 42 40 40 38 35 33 34 33 33 32 35 34 34 32 30 27 28 26 25 24 16 24 21 10 269 285
220 176 304 238 232 211 192 99 108 112 84 63 43 30 19 33 71 83 78 74 57 57 24 41 68 89 90 84 75 122 57 18 19 15 345 8 24 5 348 355 6 28 36 38 39 37 24 23 34 36 36 39 42 44 45 44 45 46 45 44 41 40 39 39 38 37 39 38 39 40 42 42 41 39 38 35 32 31 29 30 32 33 32 33 36 36 33 29 26 23 23 24 22 17 21 16 353
218 206 166 224 233 225 180 123 103 91 74 65 51 34 14 60 49 52 57 70 60 55 38 357 122 113 75 84 59 42 13 10 9 358 10 307 8 17 332 351 11 28 24 28 35 41 40 30 36 33 32 32 36 40 41 41 43 45 45 45 45 43 41 40 38 36 36 36 35 36 38 39 40 39 37 36 33 31 28 26 27 31 32 31 30 34 33 32 30 26 25 25 23 19 17 14 6
277 162 213 248 265 3 71 108 113 94 72 51 57 40 46 41 60 78 65 59 47 56 30 353 127 37 91 59 90 14 5 355 345 348 88 328 296 358 357 28 12 16 29 31 32 30 31 31 36 40 38 33 30 31 35 35 40 43 45 44 44 44 43 42 38 37 35 34 33 34 35 35 35 35 33 33 31 29 28 27 26 28 28 29 28 29 31 30 28 27 28 27 24 19 16 17 16
304 260 164 215 84 83 74 100 120 89 60 66 65 65 50 53 33 63 79 59 37 59 51 7 63 99 101 131 48 7 357 345 344 11 12 42 36 33 26 28 31 29 25 33 36 33 30 31 35 38 40 39 36 32 27 36 41 43 44 42 42 42 43 45 42 38 36 35 34 31 30 33 32 32 29 28 27 26 25 25 25 27 28 27 26 26 28 28 26 24 25 26 24 20 20 21 17
282 327 216 245 74 85 148 156 98 92 81 76 58 66 67 61 64 51 55 89 45 18 88 33 342 298 319 266 75 2 347 352 348 26 18 63 60 50 28 35 41 37 33 33 34 36 33 31 30 27 35 43 43 36 28 32 41 44 47 43 41 42 40 41 43 43 40 37 34 31 28 31 31 30 28 26 23 22 23 23 23 23 25 26 27 26 25 25 24 22 22 24 23 21 19 22 17
276 331 264 187 94 89 55 79 93 87 99 94 107 91 73 55 55 67 46 73 89 45 50 38 25 70 73 66 53 14 355 2 1 35 24 26 53 37 23 29 41 36 34 34 34 35 39 36 33 34 29 25 33 43 43 41 36 38 43 43 41 41 40 39 39 41 40 37 33 33 32 32 32 31 32 27 25 25 22 22 21 22 22 21 21 23 24 23 22 21 21 22 21 19 19 20 15
277 220 334 40 55 40 357 98 101 92 122 98 97 91 91 80 74 76 76 75 76 60 66 47 69 57 64 66 59 34 25 17 24 37 35 37 41 42 31 25 25 35 33 34 35 33 37 40 30 32 31 37 31 29 29 32 44 41 32 34 39 39 39 39 38 34 34 34 33 30 29 29 27 28 28 29 27 27 24 24 25 24 22 21 20 19 18 20 20 19 19 22 20 16 15 17 13
258 12 81 68 53 52 49 62 84 120 113 111 105 108 106 107 112 116 88 69 81 80 73 76 69 67 68 57 43 41 18 21 27 39 36 46 40 35 31 24 18 26 26 27 29 31 35 33 30 30 14 22 38 38 38 35 25 41 41 33 26 27 34 35 31 29 29 27 28 28 27 27 23 22 24 25 26 23 22 24 25 25 24 24 22 19 17 17 16 14 13 15 17 14 6 6 7
51 81 61 83 57 56 50 73 84 98 88 88 82 87 99 115 138 133 104 95 85 80 84 91 87 93 86 76 68 51 46 33 32 33 36 38 33 37 34 31 21 23 26 14 15 23 27 31 30 31 26 15 22 38 39 37 34 25 34 38 34 29 27 26 30 28 21 24 26 26 26 23 21 19 20 22 22 20 21 22 24 24 24 25 25 24 22 22 20 16 13 12 13 12 6 359 2
40 88 73 65 74 74 61 67 79 83 98 93 88 74 78 76 81 86 86 86 77 82 102 90 89 95 91 89 89 96 87 73 51 50 49 39 34 35 41 37 32 26 25 19 15 14 20 26 29 39 27 13 13 31 25 33 37 37 30 26 40 34 32 27 22 19 22 17 18 20 18 14 13 15 14 14 15 15 13 15 17 18 18 18 20 20 21 21 19 17 14 13 11 10 5 357 356
17 64 79 87 61 80 64 75 76 78 80 84 78 67 58 28 44 121 123 88 72 70 72 104 109 110 114 113 104 93 76 69 67 65 69 64 60 60 55 58 51 46 36 37 36 23 19 26 19 28 19 27 23 17 25 28 39 44 42 31 36 26 40 35 28 21 16 13 9 11 8 5 2 5 6 5 7 7 7 9 10 12 9 10 11 16 15 10 14 10 9 12 11 7 4 360 354
80 63 87 91 77 74 67 74 80 95 98 94 84 74 69 74 42 37 67 88 84 90 89 86 102 117 117 114 105 99 88 82 76 70 64 62 63 63 96 119 130 160 255 53 64 42 49 41 35 36 29 28 19 13 24 24 20 26 25 20 23 30 34 44 45 28 31 16 14 359 360 7 6 2 2 8 7 4 7 9 8 6 4 5 5 7 7 7 6 6 7 7 6 4 4 359 354
89 55 60 68 70 85 71 73 80 92 87 80 78 82 84 73 73 56 72 80 99 91 104 109 94 89 100 106 115 104 96 90 91 93 93 88 83 75 67 62 22 10 21 20 58 72 327 328 55 69 62 61 34 26 42 35 34 21 12 6 19 23 26 30 32 27 19 20 22 11 354 3 3 357 359 5 7 6 11 8 8 7 4 5 2 0 2 1 1 0 1 360 356 354 355 355 354
94 94 87 79 81 80 78 76 63 64 73 79 93 108 94 101 80 86 85 90 100 115 107 111 116 111 105 90 75 73 84 112 111 120 123 128 123 139 125 125 198 207 59 52 35 25 12 23 35 32 31 33 23 7 15 26 22 18 9 12 10 14 15 28 26 20 15 13 11 8 360 350 359 357 356 1 5 6 11 7 4 5 10 8 4 0 359 359 358 356 353 349 351 349 345 349 349
89 97 96 94 90 96 91 91 91 88 84 86 85 83 83 89 107 100 92 111 112 111 121 118 126 123 114 110 115 118 106 90 76 66 71 77 113 109 82 85 71 63 54 56 39 33 36 40 31 27 124 39 339 350 2 18 2 10 3 353 354 7 2 2 27 31 21 9 3 358 8 354 352 357 355 352 356 3 5 4 4 3 0 0 3 359 359 1 1 357 356 348 346 343 338 341 342
78 108 116 110 99 103 110 97 99 106 111 105 91 92 102 109 104 77 101 107 125 123 123 129 125 133 128 122 128 125 127 120 121 101 101 102 95 95 81 72 79 68 58 47 42 28 35 33 25 25 11 176 215 235 258 303 289 277 306 13 340 11 357 340 354 36 37 16 359 353 355 351 353 351 351 346 349 353 0 1 3 357 355 347 357 1 351 355 357 353 354 353 348 345 339 334 333
119 104 100 98 94 88 87 89 73 68 83 128 112 137 141 170 221 108 129 136 134 146 132 141 140 126 131 131 121 116 118 123 124 137 127 136 126 125 123 104 99 99 66 61 43 20 37 30 34 29 14 1 14 30 5 4 359 2 354 347 317 305 276 332 4 339 81 48 2 346 348 349 349 342 338 338 337 338 346 355 356 353 345 343 343 353 342 345 354 355 349 350 348 345 342 333 326
106 107 101 96 102 99 104 99 105 119 73 75 119 110 146 168 203 138 157 153 159 137 149 142 139 139 133 134 126 120 116 125 131 136 132 116 119 110 131 136 98 62 58 67 38 35 48 37 32 26 24 3 4 10 6 359 3 360 4 13 347 334 351 342 349 354 332 109 41 0 342 346 345 344 338 329 332 330 327 341 337 355 345 331 332 333 337 334 346 350 341 342 342 341 338 337 332
126 121 97 106 98 76 48 63 90 126 90 10 20 149 160 176 126 133 146 163 159 155 147 156 142 139 133 131 139 135 115 114 106 87 92 89 91 76 71 60 99 92 85 53 43 35 19 23 55 21 22 19 5 1 359 357 356 356 1 5 7 332 337 351 351 338 343 335 113 27 336 329 339 340 331 329 324 333 324 327 337 349 344 328 322 324 331 325 335 343 338 334 332 337 334 332 331
149 119 126 130 115 75 50 107 13 106 80 323 280 277 186 140 127 145 146 162 166 149 158 147 142 139 140 132 118 115 116 98 89 97 97 97 86 95 94 78 63 65 51 38 55 43 35 360 4 43 23 37 21 3 352 355 350 342 11 346 356 343 320 343 337 340 0 346 8 26 354 327 343 333 330 322 316 316 320 315 323 338 333 324 314 322 326 323 324 337 331 333 330 335 332 325 326
16 120 221 125 190 62 48 14 23 301 151 196 244 302 83 110 143 148 156 172 166 167 160 163 154 147 144 134 127 123 115 108 107 106 109 104 100 78 77 52 77 107 95 60 45 65 45 19 5 19 4 15 28 11 353 337 341 342 333 3 334 336 331 334 327 337 340 2 349 345 6 324 335 335 327 333 321 322 323 318 316 317 323 308 312 311 316 312 318 322 326 326 320 323 319 314 317
89 283 252 107 56 179 108 280 55 10 220 185 312 266 109 170 164 163 168 175 189 172 166 167 162 153 158 151 147 143 134 127 128 119 102 97 100 87 72 66 56 48 59 78 82 52 63 45 19 357 351 346 3 15 345 324 319 334 323 326 337 312 325 329 328 329 331 350 360 355 345 325 329 347 327 326 326 318 320 318 311 317 320 313 304 303 313 311 314 319 320 321 320 319 320 313 312
154 256 60 17 356 139 128 69 29 41 316 260 212 298 9 161 148 164 171 186 205 193 168 174 172 173 169 168 160 143 136 134 158 152 148 133 133 132 112 111 77 48 35 31 23 13 49 23 65 356 327 333 323 356 344 319 325 329 330 327 311 311 306 309 317 324 329 330 27 3 329 321 318 350 326 318 322 314 309 312 310 314 318 316 309 310 311 310 313 313 311 307 300 309 312 310 312
13 15 68 24 352 326 115 134 47 310 353 309 203 209 264 141 162 169 177 183 185 223 178 176 178 167 178 169 161 148 165 164 169 155 165 130 101 102 96 51 30 92 142 91 11 17 325 20 317 40 316 331 322 337 358 332 330 343 339 327 315 319 297 290 313 307 314 309 5 359 317 316 308 335 322 310 312 307 308 306 306 314 312 312 314 310 306 304 308 303 301 289 292 299 303 306 310
343 352 352 45 263 166 38 57 19 360 337 293 290 263 264 159 161 179 179 183 187 202 184 180 172 181 184 172 174 177 170 171 167 147 146 110 131 150 121 131 123 281 24 209 90 310 301 278 329 320 316 317 329 345 351 335 331 326 345 323 327 321 315 299 302 289 273 305 322 343 311 310 299 319 315 301 303 299 305 304 304 309 310 306 308 309 307 309 303 302 299 298 290 288 288 297 302
347 322 335 331 341 13 37 98 92 38 331 313 279 272 275 145 179 180 183 193 198 203 192 176 178 183 179 179 190 181 175 172 148 144 151 166 175 124 165 146 201 179 286 208 216 226 270 278 281 295 283 286 292 336 344 328 322 324 333 325 331 327 317 317 303 286 288 299 306 309 289 288 288 298 298 296 302 305 304 302 301 305 309 308 310 313 311 311 307 306 303 301 302 298 289 293 297
317 309 293 307 11 312 99 74 60 45 335 250 257 263 271 255 188 189 183 180 199 210 210 186 181 185 178 191 186 182 178 184 134 138 158 184 153 176 212 177 244 238 214 242 247 243 258 287 290 273 276 269 316 324 332 316 320 322 323 310 301 311 302 307 305 300 313 294 289 275 264 269 274 279 279 286 288 288 289 291 295 299 300 302 299 297 296 300 297 294 297 299 303 301 300 289 294
329 306 323 327 26 348 319 359 56 20 60 292 302 296 273 250 255 183 174 177 197 203 208 199 189 183 183 187 186 184 175 96 122 133 175 184 197 208 190 204 227 250 268 260 275 257 267 265 255 251 255 300 291 289 263 290 289 296 294 286 289 287 293 289 289 289 281 280 269 252 248 251 256 259 267 273 276 278 280 279 279 279 280 282 279 277 283 285 290 290 290 297 270 283 286 294 301
310 296 330 312 9 327 325 82 31 188 246 269 282 297 290 286 277 233 173 188 194 194 202 206 186 189 188 187 190 168 163 146 160 187 193 189 193 204 199 223 227 219 244 261 263 276 268 259 267 263 267 278 283 272 275 253 267 275 277 280 275 272 255 250 250 254 255 254 250 245 247 247 248 250 251 259 262 261 261 263 266 266 268 270 281 276 271 275 274 279 283 285 293 256 266 273 296
240 338 15 350 6 32 310 312 307 310 298 283 300 301 284 274 255 253 194 179 178 184 193 203 183 188 195 189 182 172 183 180 176 195 196 196 187 189 201 216 225 231 229 250 263 261 263 262 257 276 272 263 262 265 263 250 243 251 262 266 267 252 262 268 269 264 254 251 260 268 263 255 248 252 252 253 255 254 254 257 257 259 261 261 262 270 268 271 273 278 282 280 279 291 276 281 273
42 27 23 360 359 332 315 304 315 303 280 245 267 283 277 266 236 231 213 152 152 163 172 201 198 189 185 185 176 170 187 181 198 200 196 191 188 199 200 206 209 215 232 244 252 254 251 266 268 264 262 256 247 254 259 259 260 273 273 278 276 277 280 283 292 283 273 269 273 271 259 251 257 256 251 250 250 253 251 251 252 252 256 257 259 263 267 266 272 273 277 282 277 276 289 282 279
359 82 39 331 323 314 307 308 317 332 350 29 18 338 311 50 298 206 144 125 147 146 162 190 202 186 180 204 189 163 189 152 180 205 202 188 198 215 224 252 243 236 237 235 234 242 245 252 264 270 266 263 259 257 259 266 259 252 269 275 277 279 278 280 276 270 269 269 263 249 254 255 254 254 251 250 248 248 250 248 247 251 251 255 254 255 260 268 271 274 271 274 279 270 278 288 284
304 235 320 306 304 294 291 304 341 311 340 307 116 51 281 352 358 3 106 123 130 136 174 196 191 195 190 202 190 177 169 203 266 299 351 337 306 299 281 261 253 255 258 250 243 245 250 249 248 254 255 254 254 255 255 260 262 252 248 252 262 270 276 269 260 262 267 268 261 262 261 258 252 252 251 247 247 247 250 250 249 247 249 251 256 260 261 262 266 266 268 270 273 279 278 280 278
309 204 262 317 302 301 309 319 276 263 276 280 176 149 270 315 352 348 22 103 139 164 189 210 211 201 203 187 194 188 170 192 191 200 226 226 246 248 266 283 285 277 280 285 278 272 264 259 254 255 259 263 261 260 261 255 261 261 263 264 263 268 267 273 272 273 272 275 274 270 267 261 257 253 255 251 249 251 250 250 247 249 251 250 253 255 257 259 262 261 262 267 271 268 267 267 273
277 341 345 302 285 284 295 269 269 255 300 319 54 344 334 266 322 355 29 58 38 21 18 10 302 233 204 192 183 181 172 181 164 161 217 256 317 336 336 333 329 323 316 302 284 266 259 260 258 254 257 261 265 266 267 263 259 261 259 260 264 259 263 266 268 268 272 273 274 277 274 271 265 259 253 254 251 248 249 250 249 249 249 252 252 255 256 257 257 262 267 268 264 264 256 257 261
309 325 306 276 252 240 249 298 292 286 69 315 56 292 350 296 23 18 26 56 31 352 17 7 1 1 319 193 171 145 128 101 58 15 352 345 359 356 356 345 331 316 305 294 287 279 267 258 256 257 262 262 261 263 260 261 260 264 266 261 259 262 258 263 261 267 270 272 274 274 273 272 269 267 262 258 259 253 252 251 249 249 250 251 253 251 255 257 259 261 261 261 262 264 261 257 258
302 305 290 282 201 206 241 239 263 338 287 41 345 6 46 292 46 14 31 29 13 4 8 6 3 353 349 333 120 104 103 113 135 200 257 354 34 16 8 325 302 301 300 299 298 295 289 277 266 264 260 260 259 261 261 263 261 260 264 263 264 266 266 266 271 270 271 271 271 272 272 273 272 271 269 266 260 257 253 250 251 252 251 250 253 258 259 260 259 259 261 264 267 268 267 264 261
16 316 313 303 76 25 289 266 180 39 75 224 24 22 327 36 42 30 46 40 38 31 12 6 353 348 337 352 55 66 65 55 44 22 355 9 1 333 319 301 300 298 300 298 295 300 305 310 310 294 285 276 270 268 272 272 267 261 260 269 276 280 282 281 277 277 276 275 274 275 274 274 272 270 268 267 264 259 257 257 253 254 254 256 258 259 258 258 261 265 268 269 269 267 265 265 263
297 309 332 10 338 283 350 167 337 198 235 188 103 20 336 236 60 89 59 40 38 36 42 15 7 9 10 32 38 42 30 20 1 344 356 352 313 291 289 295 305 308 302 294 298 305 309 309 305 303 298 298 295 289 283 280 280 279 281 282 281 280 279 278 279 280 279 277 277 276 277 276 276 276 272 271 268 263 260 259 257 256 259 256 258 258 261 264 269 270 270 268 267 266 264 261 262
341 16 342 13 9 23 338 300 281 17 214 157 119 61 219 159 102 22 79 56 55 49 51 44 31 21 17 14 26 23 6 9 326 323 295 277 271 275 286 291 293 294 296 297 299 298 291 286 289 291 286 285 284 285 285 289 287 287 285 281 278 277 276 277 276 277 278 276 277 279 279 278 279 277 279 276 274 268 261 258 258 257 254 256 259 262 265 268 268 270 269 268 266 264 263 262 262
308 299 37 349 57 71 293 338 344 257 271 312 331 55 219 274 271 212 93 107 72 67 79 76 55 41 16 346 44 343 323 300 283 274 271 272 279 282 284 288 287 280 281 281 276 271 270 272 274 276 283 286 288 288 289 286 286 283 280 277 278 280 280 282 281 279 280 280 278 278 278 279 279 282 281 281 279 272 266 261 256 255 257 259 261 264 267 268 268 268 268 267 265 263 262 263 263
237 266 288 35 90 328 216 273 304 313 343 328 324 176 49 109 217 199 179 91 73 67 62 53 53 45 357 12 1 325 320 317 316 311 303 296 290 292 300 306 301 287 277 274 272 273 276 274 277 280 283 285 284 285 283 281 281 280 280 282 282 282 281 280 281 279 278 278 280 280 282 283 284 286 286 285 283 282 277 270 264 260 259 261 262 264 267 269 270 270 268 266 264 260 263 261 263
304 8 54 229 242 149 323 299 79 41 105 258 201 319 42 310 101 316 74 66 47 48 40 27 38 0 357 352 313 308 321 323 326 328 319 315 315 308 300 293 287 288 291 289 289 287 287 291 292 290 287 286 285 284 284 284 284 284 283 282 282 283 282 283 284 284 282 281 280 280 282 284 286 285 286 285 286 284 281 276 270 266 262 261 265 268 270 271 271 269 268 266 264 262 261 262 262
303 51 306 109 95 122 108 306 289 259 285 294 6 321 303 26 301 241 47 48 30 41 22 13 19 330 346 314 331 350 339 332 314 301 296 291 288 287 289 288 291 300 303 303 300 298 289 284 282 283 285 287 286 285 286 287 288 288 288 288 286 285 288 288 286 286 287 287 286 287 288 290 291 291 290 290 289 287 285 281 276 271 268 266 269 273 275 274 273 271 269 265 263 264 264 263 262
98 182 221 61 356 12 305 201 337 338 315 289 276 25 312 283 164 354 30 29 0 19 356 356 344 337 321 331 330 339 323 315 302 291 289 289 289 293 297 300 302 301 298 296 296 296 293 286 281 279 285 284 284 286 288 290 290 291 292 291 290 290 287 286 285 285 288 289 289 289 288 289 290 291 290 290 289 288 286 285 282 277 275 276 277 276 276 276 276 278 274 272 268 267 266 266 264
327 15 15 51 130 131 346 54 232 191 278 3 289 19 275 64 202 30 49 20 7 348 354 341 334 309 319 339 331 315 313 296 297 296 293 294 297 299 303 303 303 302 301 297 295 293 290 289 292 292 288 288 293 294 294 294 293 290 289 288 285 283 284 285 287 291 292 291 291 292 292 293 292 292 292 291 289 288 287 286 285 283 283 283 282 282 282 282 281 277 277 274 271 269 269 270 271
1 22 57 17 27 215 172 235 137 211 255 257 302 310 228 139 267 81 66 39 352 335 340 325 308 328 337 335 324 316 303 302 300 303 304 304 305 305 302 302 301 299 295 293 289 287 286 289 291 290 292 295 294 295 297 295 295 292 291 291 294 296 296 298 298 297 296 296 297 295 293 292 293 291 292 290 289 288 288 288 288 287 288 290 290 289 288 285 281 278 274 273 273 270 270 269 267
121 121 104 146 59 21 45 298 78 19 57 289 308 276 274 276 96 115 88 78 295 328 310 307 328 338 332 325 321 304 310 307 310 309 310 309 306 304 302 300 298 296 295 295 293 295 297 296 294 296 297 298 301 302 299 296 294 293 293 295 295 297 298 299 300 302 301 301 299 298 296 295 292 292 291 290 289 290 289 291 294 295 295 294 292 291 288 286 281 278 274 273 272 269 267 266 265